Regional Weather Roundup
Issued by NWS

Home | Current Version | Previous Version | Graphics & Text | Print | Product List | Glossary On
Versions: 1 2 3 4 5 6 7 8 9 10 11 12 13 14 15 16 17 18 19 20 21 22 23 24 25 26 27 28 29 30 31 32 33 34 35 36 37 38 39 40 41 42 43 44 45 46 47 48 49 50
000
ASUS45 KBOU 290207
RWRCO

WEATHER ROUNDUP FOR COLORADO
NATIONAL WEATHER SERVICE DENVER/BOULDER CO
800 PM MDT SAT MAR 28 2015

NOTE: "FAIR" INDICATES FEW OR NO CLOUDS BELOW 12000 FEET WITH NO
SIGNIFICANT WEATHER AND/OR OBSTRUCTIONS TO VISIBILITY.

COZ001>005-013-030-031-290300-
...NORTHWEST COLORADO...

CITY           SKY/WX    TMP DP  RH WIND       PRES   REMARKS
CRAIG          MOCLDY    54  32  43 VRB5      30.10R
HAYDEN         MOCLDY    54  28  37 N16G28    30.10R
MEEKER         PTCLDY    62  25  24 W9        30.09R
MOUNT WERNER   NOT AVBL
STEAMBOAT SPGS CLOUDY    53  31  42 NW18G32   30.12R
WALDEN         CLOUDY    46  30  53 W35G44    30.15R
$$

COZ006>008-011-290300-
...WEST CENTRAL VALLEYS...

CITY           SKY/WX    TMP DP  RH WIND       PRES   REMARKS
GRAND JUNCTION CLEAR     68  21  16 SW8       30.01F
MONTROSE       CLEAR     65  23  20 SW5       30.11R
EAGLE          MOCLDY    63  27  25 NW14G25   30.12R
RIFLE          PTCLDY    67  21  17 W9        30.05R
DELTA          CLEAR     71  16  12 W7        30.05S
NUCLA          CLEAR     63  14  15 W7        30.15S
$$

COZ017>023-064>068-290300-
...SOUTHWEST COLORADO...

CITY           SKY/WX    TMP DP  RH WIND       PRES   REMARKS
DURANGO        CLEAR     60  16  18 W15       30.17R
CORTEZ         CLEAR     57  18  21 S7        30.15S
PAGOSA SPRINGS CLEAR     60   8  13 SW8       30.21R
TELLURIDE      NOT AVBL
WOLF CREEK PAS CLEAR     36  12  38 SW20G29   30.45R
$$

COZ009-010-012-014-032>034-037-058>063-290300-
...CENTRAL COLORADO...

CITY           SKY/WX    TMP DP  RH WIND       PRES   REMARKS
ASPEN          PTCLDY    48  26  42 S3        30.17R
BUENA VISTA    PTCLDY    52  18  25 CALM      30.18R
COPPER MTN     CLOUDY    41  18  38 W24G36    30.36S HAZE
BERTHOUD PASS  FAIR      32  25  74 W24G39    30.36R WCI  19
COTTONWOOD PAS PTCLDY    52  10  19 W26G38    30.26S
GUNNISON       CLEAR     55  19  24 NW8       30.22R
KREMMLING      PTCLDY    55  21  26 W18G26    30.12R
LEADVILLE      PTCLDY    43  16  33 W13G20    30.25F
SALIDA         PTCLDY    56  16  21 CALM      30.23R
SUNLIGHT       MOCLDY    41  27  56 CALM      30.34S
WILKERSON PASS CLEAR     41  12  30 W8G16     30.33F
$$

COZ069>075-290300-
...SAN LUIS VALLEY/SANGRE DE CRISTO MOUNTAINS...

CITY           SKY/WX    TMP DP  RH WIND       PRES   REMARKS
ALAMOSA        CLEAR     58  20  22 W14       30.15R
LA VETA PASS   PTCLDY    45  18  33 SW8       30.29R
SAGUACHE       CLEAR     57  18  21 N10G18    30.18R
$$

COZ035-036-038>040-290300-
...NORTHERN COLORADO FRONT RANGE...

CITY           SKY/WX    TMP DP  RH WIND       PRES   REMARKS
DENVER INTL AP PTCLDY    67  23  19 W15       29.95R
DMNS CITY PARK   N/A     69  19  15 NW10G18   29.96R
AURORA         PTCLDY    65  22  19 NW12      29.98R
FRONT RANGE AP PTCLDY    61  28  29 W13       29.96R
ERIE MUNI ARPT CLEAR     68  20  16 SW7       29.93R
BOULDER MUN AP CLEAR     68  23  18 S7        29.93S
CENTENNIAL     PTCLDY    63  19  18 W8        29.98R
BROOMFIELD     PTCLDY    66  21  18 VRB6      29.97R
FORT COLLINS   CLEAR     66  21  18 NW9       29.93R
LONGMONT       CLEAR     68  22  17 SW3       29.93S
$$

COZ041-046-047-076>085-087-088-290300-
...PIKES PEAK/PALMER DIVIDE AND SOUTHERN FOOTHILLS...

CITY           SKY/WX    TMP DP  RH WIND       PRES   REMARKS
COLO. SPRINGS  PTCLDY    66  15  14 W12       30.01R
A. F. ACADEMY  CLEAR     64  14  14 NW6       30.03R
ELLICOTT       CLEAR    N/A N/A N/A N8        29.99R
FALCON         CLEAR     60  15  17 W12       30.06R
FORT CARSON    CLEAR     68  16  14 W9        29.99R
LIMON          PTCLDY    58  26  29 NW7       29.96R
MONUMENT HILL  CLEAR     54  19  26 SW6       30.06R
TRINIDAD       CLEAR     69  16  13 S3        30.01R
$$

COZ042>045-048>051-090-091-290300-
...NORTHEAST COLORADO...

CITY           SKY/WX    TMP DP  RH WIND       PRES   REMARKS
GREELEY ARPT   PTCLDY    66  21  18 W10       29.88R
AKRON          CLEAR     59  23  25 W9        29.88R
BURLINGTON     CLEAR     60  27  28 S15       29.90S
WRAY           PTCLDY    69  20  15 S8        29.83R
STERLING       CLEAR     55  27  33 W10       29.82S
HOLYOKE        NOT AVBL
FORT MORGAN    CLEAR     65  20  17 W5        29.88R
$$

COZ086-089-092>099-290300-
...SOUTHEAST COLORADO...

CITY           SKY/WX    TMP DP  RH WIND       PRES   REMARKS
PUEBLO         CLEAR     69  16  13 W12       29.91R
LA JUNTA       CLEAR     69  24  18 SE9       29.89F
LAMAR          CLEAR     67  26  21 S15       29.87F
SPRINGFIELD      N/A     57  26  30 S9        29.96R
$$



USA.gov is the U.S. government's official web portal to all federal, state and local government web resources and services.